Pine Ridge, SD

9:20 PM MDT on September 22, 2019 (GMT -0600)
Pine Ridge

Weather History for KIEN - August, 2019

Change the Weather History Date:

Friday, August 23, 2019

  Actual Average Record
Temperature  
Mean Temperature 73 °F 70 °F  
Max Temperature 81 °F 87 °F 104 °F (2006)
Min Temperature 65 °F 54 °F 34 °F (2015)
Degree Days  
Heating Degree Days 0 1  
Month to date heating degree days 1 11  
Since 1 June heating degree days 87 110  
Since 1 July heating degree days 3 23  
Cooling Degree Days 8 6  
Month to date cooling degree days 201 197  
Year to date cooling degree days 573 605  
Since 1 June cooling degree days 570 588  
Growing Degree Days 23 (Base 50)    
Moisture  
Dew Point 61 °F    
Average Humidity 68    
Maximum Humidity 84    
Minimum Humidity 51    
Precipitation  
Precipitation T in 0.05 in 0.81 in (2014)
Month to date precipitation T 1.47  
Year to date precipitation 11.81 13.41  
Sea Level Pressure  
Sea Level Pressure 29.86 in    
Wind  
Wind Speed 14 mph (South)    
Max Wind Speed 28 mph    
Max Gust Speed 48 mph    
Visibility 10 miles    
Events Rain    
T = Trace of Precipitation, MM = Missing Value Source: NWS Daily Summary

Daily Weather History Graph

Daily Weather History Graph

Search for Another Location

Airport or City:

Astronomy

Aug. 23, 2019 Rise Set
Actual Time 6:04 AM MDT 7:40 PM MDT
Civil Twilight 5:34 AM MDT 8:09 PM MDT
Nautical Twilight 4:58 AM MDT 8:46 PM MDT
Astronomical Twilight 4:19 AM MDT 9:24 PM MDT
Moon 11:56 PM MDT 1:55 PM MDT
Length of Visible Light 14h 35m
Length of Day
13h 35m
Waning Gibbous, 49% of the Moon is Illuminated
Aug 23
Waning Gibbous
Aug 30
New
Sep 5
First Quarter
Sep 13
Full
Sep 21
Last Quarter

Hourly Weather History & Observations

Time (MDT) Temp. Heat Index Dew Point Humidity Pressure Visibility Wind Dir Wind Speed Gust Speed Precip Events Conditions
12:52 AM 70.0 °F - 64.0 °F 81% 29.79 in 10.0 mi SSE 23.0 mph 42.6 mph N/A   Clear
1:52 AM 71.1 °F - 63.0 °F 75% 29.77 in 10.0 mi SSE 19.6 mph 40.3 mph N/A   Clear
2:52 AM 71.1 °F - 64.0 °F 78% 29.77 in 10.0 mi SSE 19.6 mph 35.7 mph N/A   Clear
3:52 AM 70.0 °F - 63.0 °F 78% 29.82 in 10.0 mi SSE 5.8 mph 25.3 mph N/A   Clear
4:52 AM 69.1 °F - 62.1 °F 78% 29.82 in 10.0 mi SSE 13.8 mph 25.3 mph N/A   Clear
5:52 AM 69.1 °F - 62.1 °F 78% 29.82 in 10.0 mi SSE 19.6 mph 33.4 mph N/A   Clear
6:52 AM 69.1 °F - 62.1 °F 78% 29.83 in 10.0 mi SSE 21.9 mph 40.3 mph N/A   Clear
7:52 AM 70.0 °F - 61.0 °F 73% 29.83 in 10.0 mi South 20.7 mph 34.5 mph N/A   Clear
8:52 AM 73.9 °F - 61.0 °F 64% 29.86 in 10.0 mi SSE 12.7 mph 24.2 mph N/A   Clear
9:52 AM 77.0 °F - 62.1 °F 60% 29.88 in 10.0 mi SSW 12.7 mph 21.9 mph N/A   Mostly Cloudy
10:52 AM 77.0 °F - 62.1 °F 60% 29.90 in 10.0 mi SSW 16.1 mph 23.0 mph N/A   Overcast
11:52 AM 75.9 °F - 62.1 °F 62% 29.90 in 10.0 mi SSW 13.8 mph 23.0 mph N/A   Overcast
12:52 PM 78.1 °F - 62.1 °F 58% 29.89 in 10.0 mi South 17.3 mph 25.3 mph N/A   Mostly Cloudy
1:52 PM 80.1 °F 81.2 °F 62.1 °F 54% 29.88 in 10.0 mi SSE 13.8 mph 27.6 mph N/A   Mostly Cloudy
2:52 PM 78.1 °F - 62.1 °F 58% 29.89 in 10.0 mi SSW 12.7 mph - N/A   Overcast
3:52 PM 80.1 °F 81.1 °F 61.0 °F 52% 29.87 in 10.0 mi SSE 11.5 mph 23.0 mph N/A   Overcast
4:52 PM 80.1 °F 81.2 °F 62.1 °F 54% 29.86 in 10.0 mi SSE 11.5 mph 19.6 mph N/A   Overcast
5:52 PM 78.1 °F - 61.0 °F 56% 29.85 in 10.0 mi South 16.1 mph 21.9 mph N/A   Overcast
6:52 PM 77.0 °F - 62.1 °F 60% 29.88 in 10.0 mi South 8.1 mph - N/A   Overcast
7:52 PM 75.0 °F - 61.0 °F 62% 29.90 in 10.0 mi SE 6.9 mph - N/A   Mostly Cloudy
8:52 PM 73.9 °F - 61.0 °F 64% 29.89 in 10.0 mi SE 8.1 mph - N/A   Mostly Cloudy
9:52 PM 73.0 °F - 61.0 °F 66% 29.89 in 10.0 mi SE 12.7 mph 23.0 mph N/A   Scattered Clouds
10:52 PM 66.0 °F - 55.9 °F 70% 29.93 in 10.0 mi South 13.8 mph 23.0 mph 0.00 in Rain Light Rain
11:52 PM 66.9 °F - 54.0 °F 63% 29.91 in 10.0 mi South 17.3 mph 29.9 mph 0.00 in   Clear